De Kooy, Netherlands

12:26 PM CEST on May 24, 2017 (GMT +0200)
De Kooy Navy

Weather History for EHKD - November, 2012

Change the Weather History Date:

Saturday, November 17, 2012

  Actual Average Record
Temperature  
Mean Temperature 44 °F -  
Max Temperature 50 °F 46 °F 59 °F (2015)
Min Temperature 37 °F 37 °F 32 °F (1998)
Degree Days  
Heating Degree Days 22    
Moisture  
Dew Point 40 °F    
Average Humidity 94    
Maximum Humidity 100    
Minimum Humidity 82    
Precipitation  
Precipitation 0.01 in 0.11 in - ()
Sea Level Pressure  
Sea Level Pressure 29.78 in    
Wind  
Wind Speed 9 mph ()    
Max Wind Speed 16 mph    
Max Gust Speed -    
Visibility 2.4 miles    
Events Fog , Rain    
Averages and records for this station are not official NWS values.
T = Trace of Precipitation, MM = Missing Value Source: Averaged Metar Reports

Daily Weather History Graph

Daily Weather History Graph

Search for Another Location

Airport or City:

Trip Planner

Search our weather history database for the weather conditions in past years. The results will help you decide how hot, cold, wet, or windy it might be!

Date:

Astronomy

Nov. 17, 2012 Rise Set
Actual Time 8:08 AM CET 4:42 PM CET
Civil Twilight 7:29 AM CET 5:21 PM CET
Nautical Twilight 6:47 AM CET 6:04 PM CET
Astronomical Twilight 6:06 AM CET 6:44 PM CET
Moon 11:43 AM CET (11/17) 8:34 PM CET (11/17)
Length of Visible Light 9h 52m
Length of Day
8h 34m
Waxing Crescent, 18% of the Moon is Illuminated
Nov 17
Waxing Crescent
Nov 20
First Quarter
Nov 28
Full
Dec 6
Last Quarter
Dec 13
New

Hourly Weather History & Observations

Time (CET) Temp. Windchill Dew Point Humidity Pressure Visibility Wind Dir Wind Speed Gust Speed Precip Events Conditions
12:25 AM 37.4 °F 32.1 °F 35.6 °F 93% 29.89 in - SSE 6.9 mph - N/A   Partly Cloudy
12:55 AM 37.4 °F 32.1 °F 35.6 °F 93% 29.89 in - South 6.9 mph - N/A   Mist
1:00 AM 38 °F - 35 °F 86% 29.89 in 2 mi SSE 4.5 mph - -   Mist
1:06 AM 37.4 °F 32.8 °F 35.6 °F 93% 29.89 in - SE 5.8 mph - N/A   Mostly Cloudy
1:13 AM 37.4 °F 32.1 °F 35.6 °F 93% 29.86 in - SE 6.9 mph - N/A   Partly Cloudy
1:25 AM 37.4 °F 32.8 °F 35.6 °F 93% 29.86 in 2.2 mi SSE 5.8 mph - N/A   Mostly Cloudy
1:27 AM 37.4 °F 32.8 °F 35.6 °F 93% 29.86 in 2.2 mi SSE 5.8 mph - N/A   Overcast
1:31 AM 37.4 °F 32.8 °F 35.6 °F 93% 29.86 in - SSE 5.8 mph - N/A   Overcast
1:35 AM 37.4 °F 32.1 °F 35.6 °F 93% 29.86 in 2.2 mi SSE 6.9 mph - N/A   Overcast
1:55 AM 39.2 °F 34.2 °F 35.6 °F 87% 29.86 in - SE 6.9 mph - N/A   Overcast
2:25 AM 37.4 °F 32.1 °F 35.6 °F 93% 29.86 in - SSE 6.9 mph - N/A   Mostly Cloudy
2:35 AM 37.4 °F 32.1 °F 35.6 °F 93% 29.86 in - SSE 6.9 mph - N/A   Mostly Cloudy
2:44 AM 37.4 °F 32.1 °F 35.6 °F 93% 29.86 in - SSE 6.9 mph - N/A   Scattered Clouds
2:48 AM 37.4 °F 32.1 °F 35.6 °F 93% 29.86 in - SSE 6.9 mph - N/A   Mostly Cloudy
2:55 AM 37.4 °F 31.4 °F 35.6 °F 93% 29.83 in - SSE 8.1 mph - N/A   Mostly Cloudy
3:02 AM 37.4 °F 30.8 °F 35.6 °F 93% 29.83 in - SSE 9.2 mph - N/A   Partly Cloudy
3:09 AM 37.4 °F 30.8 °F 35.6 °F 93% 29.83 in - SSE 9.2 mph - N/A   Mist
3:13 AM 37.4 °F 30.3 °F 35.6 °F 93% 29.83 in - SSE 10.4 mph - N/A   Mist
3:19 AM 37.4 °F 30.3 °F 35.6 °F 93% 29.83 in - SSE 10.4 mph - N/A   Mist
3:25 AM 37.4 °F 30.3 °F 35.6 °F 93% 29.83 in - SSE 10.4 mph - N/A   Mist
3:30 AM 37.4 °F 30.3 °F 35.6 °F 93% 29.83 in - SSE 10.4 mph - N/A   Mist
3:36 AM 37.4 °F 30.3 °F 35.6 °F 93% 29.83 in - SSE 10.4 mph - N/A   Mist
3:40 AM 37.4 °F 30.3 °F 35.6 °F 93% 29.83 in - SSE 10.4 mph - N/A   Partly Cloudy
3:44 AM 37.4 °F 30.3 °F 35.6 °F 93% 29.83 in - SSE 10.4 mph - N/A   Partly Cloudy
3:48 AM 37.4 °F 30.8 °F 35.6 °F 93% 29.83 in - SSE 9.2 mph - N/A   Partly Cloudy
3:55 AM 37.4 °F 30.8 °F 35.6 °F 93% 29.83 in - SSE 9.2 mph - N/A   Mist
4:00 AM 37 °F - 35 °F 91% 29.82 in 2 mi SSE 8.9 mph - -   Mist
4:04 AM 37.4 °F 30.8 °F 35.6 °F 93% 29.80 in - SSE 9.2 mph - N/A   Partly Cloudy
4:08 AM 37.4 °F 30.8 °F 35.6 °F 93% 29.80 in 2.2 mi SSE 9.2 mph - N/A   Partly Cloudy
4:13 AM 37.4 °F 30.8 °F 35.6 °F 93% 29.80 in - SSE 9.2 mph - N/A   Partly Cloudy
4:17 AM 37.4 °F 30.3 °F 35.6 °F 93% 29.80 in - SE 10.4 mph - N/A   Partly Cloudy
4:25 AM 37.4 °F 30.3 °F 35.6 °F 93% 29.80 in - SE 10.4 mph - N/A   Mist
4:28 AM 37.4 °F 30.8 °F 35.6 °F 93% 29.80 in - SE 9.2 mph - N/A   Mist
4:32 AM 37.4 °F 30.8 °F 35.6 °F 93% 29.80 in - SE 9.2 mph - N/A   Mist
4:36 AM 37.4 °F 30.8 °F 35.6 °F 93% 29.77 in - SE 9.2 mph - N/A   Mist
4:55 AM 39.2 °F 32.5 °F 35.6 °F 87% 29.77 in - SE 10.4 mph - N/A   Partly Cloudy
5:25 AM 39.2 °F 32.5 °F 35.6 °F 87% 29.77 in - SSE 10.4 mph - N/A   Partly Cloudy
5:38 AM 37.4 °F 29.8 °F 35.6 °F 93% 29.77 in - South 11.5 mph - N/A   Partly Cloudy
5:42 AM 37.4 °F 29.8 °F 35.6 °F 93% 29.77 in - South 11.5 mph - N/A   Partly Cloudy
5:55 AM 37.4 °F 29.8 °F 35.6 °F 93% 29.77 in - South 11.5 mph - N/A   Partly Cloudy
6:16 AM 39.2 °F 32.0 °F 35.6 °F 87% 29.77 in 3.1 mi SSE 11.5 mph - N/A   Mist
6:25 AM 39.2 °F 32.0 °F 35.6 °F 87% 29.77 in 3.1 mi SSE 11.5 mph - N/A   Mist
6:36 AM 37.4 °F 30.8 °F 35.6 °F 93% 29.77 in 3.1 mi SSE 9.2 mph - N/A   Mist
6:39 AM 37.4 °F 30.8 °F 35.6 °F 93% 29.77 in 3.1 mi SSE 9.2 mph - N/A   Partly Cloudy
6:55 AM 37.4 °F 30.8 °F 35.6 °F 93% 29.77 in 3.1 mi South 9.2 mph - N/A   Mist
7:00 AM 38 °F - 35 °F 84% 29.78 in 3 mi South 11.2 mph - -   Mist
7:25 AM 37.4 °F 30.8 °F 33.8 °F 87% 29.77 in 3.1 mi South 9.2 mph - N/A   Mist
7:37 AM 37.4 °F 30.8 °F 33.8 °F 87% 29.77 in 3.1 mi South 9.2 mph - N/A   Mist
7:47 AM 37.4 °F 30.8 °F 33.8 °F 87% 29.77 in - South 9.2 mph - N/A   Mist
7:55 AM 37.4 °F 30.3 °F 33.8 °F 87% 29.77 in 3.1 mi South 10.4 mph - N/A   Partly Cloudy
8:07 AM 37.4 °F 30.3 °F 33.8 °F 87% 29.77 in 3.1 mi South 10.4 mph - N/A   Mist
8:18 AM 37.4 °F 30.3 °F 33.8 °F 87% 29.77 in 3.1 mi South 10.4 mph - N/A   Scattered Clouds
8:25 AM 37.4 °F 30.3 °F 33.8 °F 87% 29.77 in 3.1 mi South 10.4 mph - N/A   Scattered Clouds
8:55 AM 37.4 °F 30.8 °F 35.6 °F 93% 29.77 in 3.7 mi South 9.2 mph - N/A   Partly Cloudy
8:57 AM 37.4 °F 30.8 °F 35.6 °F 93% 29.77 in 3.7 mi South 9.2 mph - N/A   Mostly Cloudy
9:04 AM 39.2 °F 33.0 °F 35.6 °F 87% 29.77 in 3.7 mi South 9.2 mph - N/A   Overcast
9:25 AM 39.2 °F 32.5 °F 35.6 °F 87% 29.77 in 4.3 mi South 10.4 mph - N/A   Overcast
9:55 AM 39.2 °F 31.2 °F 35.6 °F 87% 29.77 in 4.3 mi South 13.8 mph - N/A   Overcast
10:00 AM 40 °F - 36 °F 82% 29.78 in 4 mi South 13.4 mph - -   Mist
10:19 AM 39.2 °F 31.2 °F 37.4 °F 93% 29.77 in 4.3 mi South 13.8 mph - N/A   Overcast
10:25 AM 39.2 °F 31.2 °F 37.4 °F 93% 29.77 in 4.3 mi South 13.8 mph - N/A   Overcast
10:46 AM 41.0 °F 33.5 °F 37.4 °F 87% 29.77 in 3.7 mi South 13.8 mph - N/A   Overcast
10:55 AM 41.0 °F 33.5 °F 37.4 °F 87% 29.77 in 3.7 mi South 13.8 mph - N/A   Overcast
11:10 AM 41.0 °F 33.9 °F 37.4 °F 87% 29.77 in 3.1 mi South 12.7 mph - N/A   Overcast
11:25 AM 41.0 °F 33.5 °F 37.4 °F 87% 29.77 in 3.1 mi South 13.8 mph - N/A   Overcast
11:27 AM 41.0 °F 33.5 °F 39.2 °F 93% 29.77 in - South 13.8 mph - N/A   Overcast
11:41 AM 41.0 °F 33.9 °F 39.2 °F 93% 29.74 in - South 12.7 mph - N/A   Overcast
11:55 AM 41.0 °F 33.9 °F 39.2 °F 93% 29.74 in - South 12.7 mph - N/A   Overcast
12:17 PM 41.0 °F 33.9 °F 41.0 °F 100% 29.74 in 0.9 mi South 12.7 mph - N/A   Overcast
12:25 PM 41.0 °F 33.9 °F 41.0 °F 100% 29.74 in 0.9 mi South 12.7 mph - N/A   Overcast
12:45 PM 41.0 °F 34.3 °F 41.0 °F 100% 29.74 in 0.6 mi South 11.5 mph - N/A Fog Fog
12:49 PM 41.0 °F 34.3 °F 41.0 °F 100% 29.74 in - South 11.5 mph - N/A Fog Fog
12:55 PM 41.0 °F 33.9 °F 41.0 °F 100% 29.74 in 0.4 mi South 12.7 mph - N/A Fog Fog
1:00 PM 42 °F - 41 °F 96% 29.75 in 0 mi South 11.2 mph - - Fog Fog
1:25 PM 41.0 °F 33.9 °F 41.0 °F 100% 29.74 in 0.3 mi South 12.7 mph - N/A Fog Fog
1:43 PM 42.8 °F 36.2 °F 41.0 °F 93% 29.74 in 0.2 mi South 12.7 mph - N/A Fog Fog
1:55 PM 42.8 °F 35.8 °F 41.0 °F 93% 29.74 in 0.2 mi South 13.8 mph - N/A Fog Fog
2:25 PM 42.8 °F 36.2 °F 42.8 °F 100% 29.74 in 0.3 mi South 12.7 mph - N/A Fog Fog
2:55 PM 42.8 °F 36.2 °F 42.8 °F 100% 29.74 in 0.2 mi South 12.7 mph - N/A Fog Fog
3:25 PM 42.8 °F 36.2 °F 42.8 °F 100% 29.74 in 0.2 mi South 12.7 mph - N/A Fog Fog
3:35 PM 42.8 °F 36.2 °F 42.8 °F 100% 29.74 in - South 12.7 mph - N/A Fog Fog
3:55 PM 42.8 °F 36.6 °F 42.8 °F 100% 29.74 in 0.5 mi South 11.5 mph - N/A Fog Fog
4:00 PM 43 °F - 43 °F 99% 29.74 in 1 mi South 13.4 mph - - Fog Fog
4:07 PM 42.8 °F 36.2 °F 42.8 °F 100% 29.71 in 0.7 mi South 12.7 mph - N/A   Overcast
4:25 PM 42.8 °F 36.2 °F 42.8 °F 100% 29.74 in 0.8 mi South 12.7 mph - N/A   Overcast
4:47 PM 44.6 °F 39.2 °F 42.8 °F 93% 29.74 in 0.9 mi South 10.4 mph - N/A   Overcast
4:55 PM 44.6 °F 39.2 °F 42.8 °F 93% 29.74 in 1.0 mi South 10.4 mph - N/A   Overcast
5:07 PM 44.6 °F 39.2 °F 44.6 °F 100% 29.74 in 1.0 mi South 10.4 mph - N/A   Overcast
5:25 PM 44.6 °F 39.2 °F 44.6 °F 100% 29.74 in 1.0 mi South 10.4 mph - N/A   Overcast
5:55 PM 44.6 °F 38.8 °F 44.6 °F 100% 29.74 in 0.8 mi South 11.5 mph - N/A   Overcast
6:04 PM 44.6 °F 39.2 °F 44.6 °F 100% 29.74 in 0.8 mi South 10.4 mph - N/A   Mostly Cloudy
6:25 PM 44.6 °F 38.8 °F 44.6 °F 100% 29.74 in 0.7 mi South 11.5 mph - N/A   Overcast
6:55 PM 46.4 °F 40.7 °F 44.6 °F 93% 29.74 in 0.5 mi South 12.7 mph - N/A Fog Fog
6:57 PM 46.4 °F 41.1 °F 44.6 °F 93% 29.74 in - South 11.5 mph - N/A Fog Fog
7:00 PM 46 °F - 45 °F 96% 29.75 in 0 mi South 11.2 mph - - Fog Fog
7:25 PM 46.4 °F 40.7 °F 44.6 °F 93% 29.74 in - South 12.7 mph - N/A Fog Fog
7:28 PM 46.4 °F 41.1 °F 44.6 °F 93% 29.74 in - SSW 11.5 mph - N/A   Overcast
7:54 PM 46.4 °F 41.1 °F 46.4 °F 100% 29.74 in 1.0 mi South 11.5 mph - N/A   Drizzle
7:55 PM 46.4 °F 41.1 °F 46.4 °F 100% 29.74 in 0.8 mi South 11.5 mph - N/A   Heavy Drizzle
8:02 PM 46.4 °F 41.1 °F 46.4 °F 100% 29.74 in 1.1 mi South 11.5 mph - N/A   Overcast
8:06 PM 46.4 °F 41.1 °F 46.4 °F 100% 29.74 in 1.2 mi South 11.5 mph - N/A   Overcast
8:17 PM 46.4 °F 40.7 °F 46.4 °F 100% 29.74 in 1.2 mi SSW 12.7 mph - N/A Rain Light Rain
8:25 PM 46.4 °F 40.7 °F 46.4 °F 100% 29.74 in 1.2 mi SSW 12.7 mph - N/A Rain Light Rain
8:29 PM 46.4 °F 40.4 °F 46.4 °F 100% 29.74 in 1.3 mi SSW 13.8 mph - N/A   Drizzle
8:33 PM 46.4 °F 40.4 °F 46.4 °F 100% 29.74 in 1.4 mi SSW 13.8 mph - N/A   Drizzle
8:55 PM 48.2 °F - 48.2 °F 100% 29.74 in 1.3 mi SSW 15.0 mph - N/A Rain Light Rain
9:07 PM 48.2 °F - 48.2 °F 100% 29.74 in 1.5 mi SSW 16.1 mph - N/A Rain Light Rain
9:25 PM 48.2 °F - 48.2 °F 100% 29.74 in 1.7 mi SW 13.8 mph - N/A Rain Light Rain
9:40 PM 50.0 °F - 48.2 °F 94% 29.74 in - West 8.1 mph - N/A   Drizzle
9:48 PM 48.2 °F - 48.2 °F 100% 29.74 in - West 8.1 mph - N/A   Drizzle
9:55 PM 48.2 °F - 48.2 °F 100% 29.74 in - West 8.1 mph - N/A   Drizzle
10:00 PM 49 °F - 48 °F 95% 29.77 in 2 mi West 8.9 mph - - Rain Heavy Rain
10:02 PM 48.2 °F - 48.2 °F 100% 29.77 in 1.8 mi West 8.1 mph - N/A Rain Heavy Drizzle
10:06 PM 48.2 °F - 48.2 °F 100% 29.77 in 1.7 mi WNW 8.1 mph - N/A Rain Light Rain
10:13 PM 48.2 °F - 48.2 °F 100% 29.77 in - WNW 9.2 mph - N/A Rain Light Rain
10:17 PM 48.2 °F - 48.2 °F 100% 29.77 in - WNW 8.1 mph - N/A Rain Light Rain
10:25 PM 48.2 °F - 48.2 °F 100% 29.77 in - WNW 6.9 mph - N/A Rain Light Rain
10:36 PM 48.2 °F - 48.2 °F 100% 29.77 in 3.7 mi WNW 5.8 mph - N/A Rain Rain
10:48 PM 48.2 °F - 46.4 °F 93% 29.77 in 6.2 mi WNW 4.6 mph - N/A   Light Drizzle
10:55 PM 50.0 °F - 46.4 °F 87% 29.77 in 6.2 mi WNW 5.8 mph - N/A   Drizzle
10:57 PM 50.0 °F - 46.4 °F 87% 29.77 in 6.2 mi WNW 8.1 mph - N/A   Light Drizzle
11:07 PM 48.2 °F - 46.4 °F 93% 29.77 in 6.2 mi NW 6.9 mph - N/A Rain Light Rain
11:19 PM 48.2 °F - 44.6 °F 87% 29.77 in 6.2 mi NW 4.6 mph - N/A   Drizzle
11:25 PM 48.2 °F - 44.6 °F 87% 29.77 in 6.2 mi NW 4.6 mph - N/A   Drizzle
11:27 PM 48.2 °F - 44.6 °F 87% 29.77 in 6.2 mi NW 4.6 mph - N/A   Light Drizzle
11:37 PM 48.2 °F - 44.6 °F 87% 29.77 in 6.2 mi NW 4.6 mph - N/A   Overcast
11:55 PM 48.2 °F - 44.6 °F 87% 29.77 in 6.2 mi WNW 5.8 mph - N/A   Overcast